Fort Collins, CO

2:55 AM MST on December 07, 2019 (GMT -0700)
Fort Collins-Loveland Municipal

Weather History for KFNL - October, 2019

Change the Weather History Date:

Monday, October 7, 2019

  Actual Average Record
Temperature  
Mean Temperature 51 °F -  
Max Temperature 74 °F - 82 °F (2010)
Min Temperature 28 °F - 24 °F (2012)
Degree Days  
Heating Degree Days 14    
Month to date heating degree days 95  
Cooling Degree Days 0    
Month to date cooling degree days 0  
Growing Degree Days 4 (Base 50)    
Moisture  
Dew Point 25 °F    
Average Humidity 42    
Maximum Humidity 70    
Minimum Humidity 14    
Precipitation  
Precipitation 0.00 in - 0.00 in (2019)
Snow  
Snow 0.00 in - - ()
Snow Depth 0.00 in    
Sea Level Pressure  
Sea Level Pressure 30.11 in    
Wind  
Wind Speed 4 mph (NNE)    
Max Wind Speed 8 mph    
Max Gust Speed -    
Visibility 10 miles    
Events      
T = Trace of Precipitation, MM = Missing Value Source: NWS Daily Summary

Daily Weather History Graph

Daily Weather History Graph

Search for Another Location

Airport or City:

Astronomy

Oct. 07, 2019 Rise Set
Actual Time 7:02 AM MDT 6:32 PM MDT
Civil Twilight 6:35 AM MDT 6:59 PM MDT
Nautical Twilight 6:03 AM MDT 7:31 PM MDT
Astronomical Twilight 5:31 AM MDT 8:03 PM MDT
Moon 3:57 PM MDT 12:56 AM MDT
Length of Visible Light 12h 24m
Length of Day
11h 30m
Waxing Gibbous, 69% of the Moon is Illuminated
Oct 7
Waxing Gibbous
Oct 13
Full
Oct 21
Last Quarter
Oct 27
New
Nov 4
First Quarter

Hourly Weather History & Observations

Time (MDT) Temp. Windchill Dew Point Humidity Pressure Visibility Wind Dir Wind Speed Gust Speed Precip Events Conditions
12:56 AM 39.9 °F 34.5 °F 28.9 °F 65% 30.25 in 10.0 mi NNE 8.1 mph - N/A   Clear
1:56 AM 37.9 °F 32.1 °F 28.9 °F 70% 30.25 in 10.0 mi NNE 8.1 mph - N/A   Clear
2:56 AM 36.0 °F - 27.0 °F 70% 30.25 in 10.0 mi Calm Calm - N/A   Clear
3:56 AM 37.9 °F - 26.1 °F 62% 30.23 in 10.0 mi Calm Calm - N/A   Clear
4:56 AM 35.1 °F 31.0 °F 27.0 °F 72% 30.24 in 10.0 mi East 4.6 mph - N/A   Clear
5:56 AM 35.1 °F - 27.0 °F 72% 30.25 in 10.0 mi Calm Calm - N/A   Clear
6:56 AM 34.0 °F 31.0 °F 24.1 °F 67% 30.25 in 10.0 mi SE 3.5 mph - N/A   Clear
7:56 AM 36.0 °F - 27.0 °F 70% 30.26 in 10.0 mi Calm Calm - N/A   Clear
8:56 AM 42.1 °F - 30.0 °F 62% 30.26 in 10.0 mi Calm Calm - N/A   Clear
9:56 AM 51.1 °F - 27.0 °F 39% 30.21 in 10.0 mi WSW 3.5 mph - N/A   Clear
10:56 AM 57.0 °F - 21.0 °F 25% 30.17 in 10.0 mi South 3.5 mph - N/A   Clear
11:56 AM 63.0 °F - 21.9 °F 21% 30.13 in 10.0 mi Variable 5.8 mph - N/A   Clear
12:56 PM 66.0 °F - 23.0 °F 20% 30.10 in 10.0 mi Variable 5.8 mph - N/A   Clear
1:56 PM 70.0 °F - 23.0 °F 17% 30.05 in 9.0 mi South 8.1 mph - N/A   Clear
2:56 PM 72.0 °F - 24.1 °F 17% 30.02 in 10.0 mi Variable 6.9 mph - N/A   Clear
3:56 PM 73.0 °F - 21.0 °F 14% 29.98 in 10.0 mi Variable 3.5 mph - N/A   Clear
4:56 PM 72.0 °F - 19.9 °F 14% 29.98 in 10.0 mi SSE 5.8 mph - N/A   Clear
5:56 PM 70.0 °F - 19.9 °F 15% 29.97 in 10.0 mi Calm Calm - N/A   Clear
6:56 PM 64.9 °F - 24.1 °F 21% 29.99 in 10.0 mi North 3.5 mph - N/A   Clear
7:56 PM 62.1 °F - 24.1 °F 23% 29.99 in 10.0 mi North 5.8 mph - N/A   Clear
8:56 PM 53.1 °F - 27.0 °F 37% 30.00 in 10.0 mi NNE 3.5 mph - N/A   Clear
9:56 PM 52.0 °F - 28.9 °F 41% 29.96 in 10.0 mi North 5.8 mph - N/A   Clear
10:56 PM 45.0 °F 41.8 °F 28.9 °F 53% 29.96 in 10.0 mi North 5.8 mph - N/A   Clear
11:56 PM 45.0 °F 43.5 °F 30.0 °F 56% 29.93 in 10.0 mi North 3.5 mph - N/A   Clear